Fresno, CA

5:37 PM PST on February 25, 2017 (GMT -0800)
Fresno Yosemite International

Weather History for KFAT - May, 2014

Change the Weather History Date:

Thursday, May 29, 2014

  Actual Average Record
Temperature  
Mean Temperature 72 °F 73 °F  
Max Temperature 89 °F 88 °F 107 °F (1984)
Min Temperature 54 °F 59 °F 45 °F (1906)
Degree Days  
Heating Degree Days 0    
Month to date heating degree days 3  
Since 1 July heating degree days 1504  
Cooling Degree Days 7    
Month to date cooling degree days 276  
Year to date cooling degree days 420  
Growing Degree Days 22 (Base 50)    
Moisture  
Dew Point 30 °F    
Average Humidity 26    
Maximum Humidity 43    
Minimum Humidity 8    
Precipitation  
Precipitation 0.00 in 0.01 in 0.46 in (1906)
Month to date precipitation 0.04 0.41  
Year to date precipitation 4.08 7.61  
Since 1 July precipitation 4.81  
Snow  
Snow 0.00 in - - ()
Month to date snowfall 0.0  
Since 1 July snowfall 0.0  
Snow Depth -    
Sea Level Pressure  
Sea Level Pressure 29.89 in    
Wind  
Wind Speed 4 mph (WNW)    
Max Wind Speed 13 mph    
Max Gust Speed 17 mph    
Visibility 10 miles    
Events      
T = Trace of Precipitation, MM = Missing Value Source: NWS Daily Summary

Daily Weather History Graph

Daily Weather History Graph

Search for Another Location

Airport or City:

Trip Planner

Search our weather history database for the weather conditions in past years. The results will help you decide how hot, cold, wet, or windy it might be!

Date:

Astronomy

May. 29, 2014 Rise Set
Actual Time 5:42 AM PDT 8:10 PM PDT
Civil Twilight 5:12 AM PDT 8:40 PM PDT
Nautical Twilight 4:35 AM PDT 9:17 PM PDT
Astronomical Twilight 3:54 AM PDT 9:58 PM PDT
Moon 6:38 AM PDT (5/29) 9:06 PM PDT (5/29)
Length of Visible Light 15h 27m
Length of Day
14h 27m
New Moon, 1% of the Moon is Illuminated
May 29
New Moon
Jun 5
First Quarter
Jun 12
Full
Jun 19
Last Quarter
Jun 27
New

Hourly Weather History & Observations

Time (PDT) Temp. Dew Point Humidity Pressure Visibility Wind Dir Wind Speed Gust Speed Precip Events Conditions
12:53 AM 64.4 °F 28.4 °F 26% 29.90 in 10.0 mi WNW 6.9 mph - N/A   Clear
1:53 AM 61.0 °F 30.9 °F 32% 29.89 in 10.0 mi WNW 6.9 mph - N/A   Clear
6:53 AM 57.2 °F 35.6 °F 44% 29.92 in 10.0 mi ESE 4.6 mph - N/A   Clear
7:53 AM 60.8 °F 35.6 °F 39% 29.92 in 10.0 mi ESE 5.8 mph - N/A   Mostly Cloudy
8:53 AM 66.2 °F 35.6 °F 32% 29.94 in 10.0 mi SE 6.9 mph - N/A   Mostly Cloudy
9:53 AM 69.1 °F 36.0 °F 30% 29.93 in 10.0 mi South 6.9 mph - N/A   Overcast
10:53 AM 72.0 °F 34.0 °F 25% 29.93 in 10.0 mi Calm Calm - N/A   Overcast
11:53 AM 78.1 °F 28.0 °F 16% 29.93 in 10.0 mi Calm Calm - N/A   Overcast
12:53 PM 79.0 °F 34.0 °F 20% 29.93 in 10.0 mi Calm Calm - N/A   Overcast
1:53 PM 82.0 °F 32.0 °F 16% 29.91 in 10.0 mi West 5.8 mph - N/A   Overcast
2:53 PM 84.2 °F 28.4 °F 13% 29.90 in 10.0 mi West 5.8 mph - N/A   Overcast
3:53 PM 86.0 °F 18.0 °F 8% 29.88 in 10.0 mi NW 9.2 mph - N/A   Mostly Cloudy
4:53 PM 87.1 °F 19.0 °F 8% 29.86 in 10.0 mi NW 5.8 mph - N/A   Scattered Clouds
5:53 PM 87.1 °F 25.0 °F 10% 29.84 in 10.0 mi WNW 6.9 mph - N/A   Mostly Cloudy
6:53 PM 86.0 °F 25.0 °F 11% 29.84 in 10.0 mi NW 8.1 mph - N/A   Scattered Clouds
7:53 PM 82.9 °F 27.0 °F 13% 29.85 in 10.0 mi WNW 9.2 mph - N/A   Scattered Clouds
8:53 PM 79.0 °F 34.0 °F 20% 29.86 in 10.0 mi WNW 6.9 mph - N/A   Partly Cloudy
9:53 PM 77.0 °F 33.8 °F 21% 29.88 in 10.0 mi NW 3.5 mph - N/A   Clear
10:53 PM 75.0 °F 33.1 °F 22% 29.88 in 10.0 mi NNW 3.5 mph - N/A   Clear
11:53 PM 73.0 °F 37.0 °F 27% 29.87 in 10.0 mi Calm Calm - N/A   Scattered Clouds